KS4XQ Weather Reports


Display with metric or nautical units.
time (UTC)temp
F
wind
direction
speed
MPH
gust
MPH
rain 1hr
in
rain 24hr
in
rain mn
in
humidity
%
barometer
mb
20260507022502 63 265 0.0 2.0 0.03 0.64 0.64 96 1012.8
20260507022004 63 299 0.0 1.0 0.04 0.64 0.64 96 1013.0
20260507021502 63 323 0.0 1.0 0.06 0.64 0.64 96 1013.1
20260507021002 63 323 0.0 2.0 0.07 0.64 0.64 96 1013.1
20260507020502 64 79 1.0 2.0 0.08 0.63 0.63 95 1012.4
20260507020006 64 141 1.0 2.0 0.15 0.63 0.63 95 1013.0
20260507015502 64 141 0.0 1.0 0.39 0.63 0.63 95 1013.3
20260507015004 64 141 0.0 1.0 0.55 0.63 0.63 95 1013.7
20260507014502 64 141 0.0 2.0 0.60 0.63 0.63 95 1014.0
20260507014005 64 141 1.0 2.0 0.59 0.62 0.62 96 1014.0
20260507013501 64 95 0.0 2.0 0.59 0.62 0.62 96 1014.1
20260507012503 64 95 0.0 1.0 0.58 0.61 0.61 95 1014.0
20260507011504 64 355 0.0 2.0 0.55 0.58 0.58 95 1014.3
20260507010005 64 97 2.0 5.0 0.42 0.44 0.44 95 1013.3
20260507005504 64 283 2.0 5.0 0.22 0.24 0.24 95 1014.9
20260507004003 65 301 1.0 3.0 0.01 0.03 0.03 94 1011.9
20260507003503 65 14 1.0 3.0 0.01 0.03 0.03 93 1011.1
20260507003005 65 49 1.0 3.0 0.01 0.03 0.03 93 1010.9
20260507002503 65 95 1.0 2.0 0.01 0.03 0.03 93 1010.8
20260507002002 65 217 0.0 1.0 0.02 0.03 0.03 93 1011.5
20260507001503 65 294 0.0 3.0 0.02 0.03 0.03 93 1011.9
20260507000503 65 34 0.0 1.0 0.01 0.02 0.02 93 1012.4
20260507000005 65 350 0.0 1.0 0.01 0.02 0.02 92 1012.5
20260506235503 65 301 1.0 2.0 0.01 0.02 0.02 92 1013.0
20260506235003 65 301 1.0 2.0 0.01 0.02 0.02 92 1012.9
20260506234503 66 111 0.0 2.0 0.01 0.02 0.02 92 1012.8
20260506234002 66 97 0.0 1.0 0.01 0.02 0.02 91 1013.2
20260506233505 66 323 0.0 2.0 0.01 0.02 0.02 92 1013.1
20260506233002 66 323 1.0 3.0 0.01 0.02 0.02 91 1013.3
20260506232502 66 27 1.0 3.0 0.01 0.02 0.02 90 1013.0
20260506232004 67 5 1.0 6.0 0.00 0.01 0.01 89 1013.0
20260506231502 68 33 3.0 8.0 0.00 0.01 0.01 87 1012.9
20260506231003 69 350 3.0 8.0 0.00 0.01 0.01 85 1013.0
20260506230502 70 92 3.0 8.0 0.00 0.01 0.01 83 1013.2
20260506230004 71 25 2.0 6.0 0.00 0.01 0.01 83 1013.4
20260506225502 71 327 1.0 3.0 0.00 0.01 0.01 82 1012.8
20260506225004 72 320 1.0 2.0 0.00 0.01 0.01 84 1011.8
20260506224502 72 99 0.0 1.0 0.00 0.01 0.01 83 1011.7
20260506224002 73 151 0.0 1.0 0.00 0.01 0.01 82 1011.4
20260506223004 73 280 0.0 1.0 0.00 0.01 0.01 82 1011.6
20260506222502 73 280 0.0 1.0 0.00 0.01 0.01 82 1011.7
20260506222002 74 280 0.0 1.0 0.00 0.01 0.01 82 1011.8
20260506221502 74 280 0.0 1.0 0.00 0.01 0.01 82 1011.8
20260506221004 74 280 0.0 0.0 0.00 0.01 0.01 82 1011.9
20260506220503 73 280 0.0 0.0 0.00 0.01 0.01 82 1011.9
20260506220005 74 280 0.0 1.0 0.00 0.01 0.01 81 1012.1
20260506215504 74 280 0.0 1.0 0.00 0.01 0.01 81 1012.1
20260506215002 74 280 0.0 0.0 0.00 0.01 0.01 82 1011.9
20260506214502 74 280 0.0 0.0 0.00 0.01 0.01 82 1011.9
20260506214003 74 280 0.0 0.0 0.00 0.01 0.01 82 1011.9
20260506213003 74 280 0.0 0.0 0.00 0.01 0.01 80 1012.2
20260506212502 74 280 0.0 0.0 0.00 0.01 0.01 80 1012.3
20260506212004 74 280 0.0 0.0 0.00 0.01 0.01 81 1012.4
20260506211502 74 280 0.0 0.0 0.00 0.01 0.01 80 1012.5
20260506211003 74 280 0.0 0.0 0.00 0.01 0.01 80 1012.7
20260506210006 74 280 0.0 0.0 0.00 0.01 0.01 79 1012.7
20260506205503 74 280 0.0 0.0 0.00 0.01 0.01 79 1012.7
20260506205002 74 280 0.0 0.0 0.00 0.01 0.01 79 1012.7
20260506204502 74 280 0.0 1.0 0.00 0.01 0.01 79 1012.9
20260506204004 74 280 0.0 1.0 0.00 0.01 0.01 78 1013.0
20260506203502 74 280 0.0 1.0 0.00 0.01 0.01 77 1013.0
20260506203002 74 280 0.0 1.0 0.00 0.01 0.01 77 1013.0
20260506202004 74 280 1.0 2.0 0.00 0.01 0.01 77 1013.3
20260506201502 75 280 1.0 2.0 0.00 0.01 0.01 76 1013.4
20260506201002 75 280 1.0 3.0 0.00 0.01 0.01 76 1013.3
20260506200503 75 280 1.0 4.0 0.00 0.01 0.01 74 1013.3
20260506200005 75 300 2.0 7.0 0.00 0.01 0.01 73 1013.5
20260506195501 76 310 3.0 7.0 0.00 0.01 0.01 72 1013.5
20260506195001 77 272 3.0 7.0 0.00 0.01 0.01 71 1013.5
20260506194502 77 227 2.0 8.0 0.00 0.01 0.01 71 1013.4
20260506194002 77 282 2.0 8.0 0.00 0.01 0.01 71 1013.3
20260506193501 77 239 2.0 10.0 0.00 0.01 0.01 71 1013.5
20260506192501 77 276 2.0 5.0 0.00 0.01 0.01 73 1013.8
20260506192003 77 331 3.0 10.0 0.00 0.01 0.01 72 1013.8
20260506191500 76 290 3.0 9.0 0.00 0.01 0.01 73 1013.9
20260506191001 77 5 5.0 13.0 0.00 0.01 0.01 71 1014.0
20260506190503 76 241 4.0 12.0 0.00 0.01 0.01 72 1014.2
20260506190006 76 299 4.0 12.0 0.00 0.01 0.01 74 1014.1
20260506185501 75 275 4.0 13.0 0.00 0.01 0.01 78 1014.1
20260506184502 75 282 4.0 11.0 0.00 0.01 0.01 75 1014.1
20260506184003 75 231 4.0 11.0 0.00 0.01 0.01 76 1014.0
20260506183502 74 294 3.0 10.0 0.00 0.01 0.01 77 1014.2
20260506183001 73 265 2.0 10.0 0.00 0.01 0.01 81 1014.2
20260506182501 72 275 2.0 10.0 0.00 0.01 0.01 82 1014.1
20260506182003 72 295 2.0 8.0 0.00 0.01 0.01 83 1013.9
20260506181502 72 207 2.0 9.0 0.00 0.01 0.01 82 1014.0
20260506180501 72 283 3.0 8.0 0.00 0.01 0.01 83 1014.0
20260506180006 72 317 2.0 8.0 0.00 0.01 0.01 84 1013.8
20260506175501 71 281 2.0 6.0 0.01 0.01 0.01 82 1013.9
20260506174501 71 309 2.0 7.0 0.01 0.01 0.01 87 1013.8
20260506173501 70 273 1.0 5.0 0.01 0.01 0.01 85 1014.2
20260506173004 70 293 1.0 4.0 0.01 0.01 0.01 89 1014.4
20260506172001 69 236 1.0 4.0 0.01 0.01 0.01 88 1014.6
20260506171003 69 168 0.0 2.0 0.01 0.01 0.01 90 1014.8
20260506170502 69 101 1.0 2.0 0.01 0.01 0.01 87 1014.6
20260506170005 69 89 1.0 4.0 0.01 0.01 0.01 87 1014.8
20260506165501 69 90 2.0 6.0 0.00 0.00 0.00 85 1015.0
20260506164501 69 273 1.0 4.0 0.00 0.00 0.00 82 1015.6
20260506164002 69 273 2.0 9.0 0.00 0.00 0.00 81 1015.6
20260506163502 69 270 2.0 9.0 0.00 0.00 0.00 80 1015.9
20260506162502 70 22 1.0 4.0 0.00 0.00 0.00 79 1015.7
20260506162002 70 291 2.0 5.0 0.00 0.00 0.00 79 1015.8
20260506161502 70 283 3.0 8.0 0.00 0.00 0.00 79 1015.7
20260506160503 70 294 1.0 3.0 0.00 0.00 0.00 80 1015.7
20260506160003 70 273 1.0 4.0 0.00 0.00 0.00 81 1015.2
20260506155500 70 253 1.0 4.0 0.00 0.00 0.00 79 1015.0
20260506155002 70 317 2.0 7.0 0.00 0.00 0.00 78 1015.4
20260506154000 70 338 1.0 8.0 0.00 0.00 0.00 78 1015.2
20260506153500 70 270 1.0 3.0 0.00 0.00 0.00 79 1015.3
20260506153002 69 184 1.0 3.0 0.00 0.00 0.00 78 1015.3
20260506152500 69 355 1.0 4.0 0.00 0.00 0.00 78 1015.2
20260506152000 69 238 2.0 8.0 0.00 0.00 0.00 79 1015.2
20260506151500 69 297 2.0 8.0 0.00 0.00 0.00 78 1015.4
20260506151002 69 316 2.0 8.0 0.00 0.00 0.00 78 1015.0
20260506145502 68 272 3.0 7.0 0.00 0.00 0.00 77 1015.1
20260506145003 68 290 2.0 7.0 0.00 0.00 0.00 77 1014.9
20260506144501 68 302 2.0 8.0 0.00 0.00 0.00 76 1014.9
20260506144002 69 296 2.0 8.0 0.00 0.00 0.00 76 1014.8
20260506143501 69 236 1.0 4.0 0.00 0.00 0.00 76 1014.8
20260506142501 68 276 3.0 8.0 0.00 0.00 0.00 76 1014.6
20260506142004 68 308 3.0 8.0 0.00 0.00 0.00 76 1014.3
20260506141501 68 284 3.0 6.0 0.00 0.00 0.00 77 1014.3
20260506140503 68 259 2.0 8.0 0.00 0.00 0.00 77 1014.3
20260506140002 68 289 2.0 8.0 0.00 0.00 0.00 78 1014.3
20260506135500 67 286 3.0 6.0 0.00 0.00 0.00 78 1014.3
20260506135002 67 277 3.0 8.0 0.00 0.00 0.00 77 1014.4
20260506134500 67 298 3.0 9.0 0.00 0.00 0.00 78 1014.4
20260506134000 67 281 1.0 9.0 0.00 0.00 0.00 79 1014.5
20260506133503 67 314 1.0 3.0 0.00 0.00 0.00 79 1014.2
20260506132500 66 309 2.0 5.0 0.00 0.00 0.00 80 1014.4
20260506132002 66 167 2.0 7.0 0.00 0.00 0.00 80 1014.4
20260506131500 65 322 1.0 4.0 0.00 0.00 0.00 82 1014.6
20260506131000 65 267 1.0 4.0 0.00 0.00 0.00 83 1014.5
20260506130500 64 282 1.0 2.0 0.00 0.00 0.00 84 1014.6
20260506130007 64 185 0.0 2.0 0.00 0.00 0.00 84 1014.6
20260506125501 64 261 0.0 2.0 0.00 0.00 0.00 84 1014.7
20260506125001 63 246 0.0 2.0 0.00 0.00 0.00 84 1014.6
20260506124001 63 277 0.0 2.0 0.00 0.00 0.00 84 1014.7
20260506122501 63 237 0.0 1.0 0.00 0.00 0.00 85 1014.4
20260506122001 63 237 0.0 2.0 0.00 0.00 0.00 85 1014.1
20260506121501 63 237 0.0 0.0 0.00 0.00 0.00 85 1013.9
20260506121003 63 237 0.0 0.0 0.00 0.00 0.00 85 1014.1
20260506120501 62 237 0.0 0.0 0.00 0.00 0.00 85 1014.3
20260506120004 62 237 0.0 0.0 0.00 0.00 0.00 84 1014.3
20260506115501 62 237 0.0 0.0 0.00 0.00 0.00 84 1014.3
20260506115003 62 237 0.0 0.0 0.00 0.00 0.00 84 1014.3
20260506114501 62 237 0.0 0.0 0.00 0.00 0.00 83 1014.3
20260506114001 62 237 0.0 0.0 0.00 0.00 0.00 83 1014.3
20260506113502 62 237 0.0 0.0 0.00 0.00 0.00 84 1014.4
20260506113003 62 237 0.0 0.0 0.00 0.00 0.00 82 1014.4
20260506112501 62 237 0.0 0.0 0.00 0.00 0.00 82 1014.2
20260506112001 63 237 0.0 0.0 0.00 0.00 0.00 83 1014.3
20260506110501 63 237 0.0 1.0 0.00 0.00 0.00 81 1013.9
20260506110002 63 237 0.0 1.0 0.00 0.00 0.00 81 1013.9
20260506105500 63 237 0.0 0.0 0.00 0.00 0.00 80 1013.7
20260506105001 63 237 0.0 1.0 0.00 0.00 0.00 80 1013.6
20260506104500 63 237 0.0 1.0 0.00 0.00 0.00 80 1013.5
20260506103500 63 196 0.0 1.0 0.00 0.00 0.00 80 1013.5
20260506103002 63 196 0.0 1.0 0.00 0.00 0.00 80 1013.5
20260506102500 63 196 0.0 2.0 0.00 0.00 0.00 80 1013.4
20260506102000 63 175 0.0 3.0 0.00 0.00 0.00 80 1013.2
20260506101500 63 173 1.0 3.0 0.00 0.00 0.00 79 1013.2
20260506101003 63 137 0.0 2.0 0.00 0.00 0.00 79 1013.2
20260506100500 63 278 0.0 1.0 0.00 0.00 0.00 79 1013.1
20260506100004 63 271 0.0 2.0 0.00 0.00 0.00 79 1013.0
20260506095500 63 195 1.0 4.0 0.00 0.00 0.00 78 1012.7
20260506094502 64 192 1.0 3.0 0.00 0.00 0.00 78 1012.9
20260506094000 64 123 1.0 3.0 0.00 0.00 0.00 78 1012.9
20260506093500 64 190 1.0 4.0 0.00 0.00 0.00 78 1013.0
20260506093000 64 205 0.0 2.0 0.00 0.00 0.00 78 1013.0
20260506092502 64 213 1.0 2.0 0.00 0.00 0.00 78 1013.0
20260506092002 64 185 1.0 2.0 0.00 0.00 0.00 78 1013.2
20260506091500 64 195 1.0 2.0 0.00 0.00 0.00 78 1013.1
20260506091000 64 190 1.0 3.0 0.00 0.00 0.00 77 1013.3
20260506090004 64 155 1.0 3.0 0.00 0.00 0.00 77 1013.2
20260506085500 64 165 1.0 5.0 0.00 0.00 0.00 77 1013.2
20260506085000 64 251 1.0 4.0 0.00 0.00 0.00 77 1013.2
20260506084002 64 215 1.0 3.0 0.00 0.00 0.00 76 1013.2
20260506083500 64 194 1.0 3.0 0.00 0.00 0.00 76 1013.4
20260506083000 64 294 1.0 3.0 0.00 0.00 0.00 76 1013.4
20260506082001 64 149 1.0 3.0 0.00 0.00 0.00 76 1013.6
20260506081501 64 142 1.0 3.0 0.00 0.00 0.00 75 1013.6
20260506081001 64 177 1.0 4.0 0.00 0.00 0.00 75 1013.5
20260506080500 64 175 1.0 5.0 0.00 0.00 0.00 75 1013.5
20260506073501 64 123 1.0 8.0 0.00 0.00 0.00 74 1013.6
20260506073002 64 187 1.0 8.0 0.00 0.00 0.00 73 1013.6
20260506072501 65 267 1.0 7.0 0.00 0.00 0.00 73 1013.5
20260506072001 65 189 1.0 4.0 0.00 0.00 0.00 73 1013.5
20260506071501 65 169 1.0 3.0 0.00 0.00 0.00 72 1013.5
20260506070500 65 186 1.0 5.0 0.00 0.00 0.00 72 1013.5
20260506062502 65 162 0.0 3.0 0.00 0.00 0.00 69 1013.8
20260506062000 64 154 1.0 3.0 0.00 0.00 0.00 69 1013.7
20260506061501 64 182 1.0 4.0 0.00 0.00 0.00 69 1013.7
20260506061000 64 208 1.0 4.0 0.00 0.00 0.00 70 1013.5
20260506060502 64 182 1.0 3.0 0.00 0.00 0.00 70 1013.4
20260506051001 63 284 0.0 0.0 0.00 0.00 0.00 74 1013.5
20260506050500 63 284 0.0 1.0 0.00 0.00 0.00 75 1013.5
20260506045000 63 284 0.0 0.0 0.00 0.00 0.00 73 1014.0
20260506044500 63 284 0.0 0.0 0.00 0.00 0.00 74 1013.8
20260506043500 63 284 0.0 0.0 0.00 0.00 0.00 71 1013.8
20260506043000 63 284 0.0 0.0 0.00 0.00 0.00 72 1013.7
20260506042500 63 284 0.0 0.0 0.00 0.00 0.00 71 1013.8
20260506041500 63 284 0.0 2.0 0.00 0.00 0.00 71 1013.9
20260506041002 63 256 0.0 1.0 0.00 0.00 0.00 72 1013.8
20260506040500 63 247 0.0 0.0 0.00 0.00 0.00 70 1013.7
20260506040009 63 248 0.0 1.0 0.00 0.00 0.00 71 1013.6
20260506035502 63 247 0.0 1.0 0.00 0.00 0.00 70 1013.5
20260506035004 63 247 0.0 0.0 0.00 0.00 0.00 69 1013.7
20260506034502 63 247 0.0 1.0 0.00 0.00 0.00 69 1013.6
20260506033503 64 247 0.0 1.0 0.00 0.00 0.00 68 1013.6
20260506033002 64 247 0.0 1.0 0.00 0.00 0.00 67 1013.6
20260506032501 64 247 0.0 1.0 0.00 0.00 0.00 67 1013.6
20260506032004 64 259 0.0 0.0 0.00 0.00 0.00 67 1013.7
20260506031503 65 259 0.0 0.0 0.00 0.00 0.00 67 1013.8
20260506031002 65 259 0.0 0.0 0.00 0.00 0.00 67 1013.8
20260506030007 65 259 0.0 2.0 0.00 0.00 0.00 66 1013.9
20260506025503 65 259 0.0 0.0 0.00 0.00 0.00 66 1014.0
20260506025004 65 259 0.0 0.0 0.00 0.00 0.00 65 1014.1
20260506024503 66 259 0.0 0.0 0.00 0.00 0.00 65 1014.1
20260506024003 66 259 0.0 0.0 0.00 0.00 0.00 65 1014.0
20260506023502 66 259 0.0 0.0 0.00 0.00 0.00 66 1014.0
20260506023004 66 259 0.0 2.0 0.00 0.00 0.00 66 1013.7